SL-16 DEB

Satellite information

Favourite Embed

Satellite Type and Status

DEBRISIN ORBIT

Key statistics

Satellite SL-16 DEB at a glance.

Uptime

11883

Days in orbit

Revolutions

≈ 14.2

Per day

Orbit

LEO

Low Earth Orbit

Inclination

71.2

Latest

Satellite identification and parameters

Extended collection of information and parameters for SL-16 DEB.

Object identification

Identified? True

Debris? True

Object name: SL-16 DEB

International designator: 1992-093HK

Object number (NORAD): 22549

Object ID (CCSDS): 22549

Country: COMMONWEALTH OF INDEPENDENT STATES (CIS)

Current information (Y/N): Y

RCS size: SMALL

Orbital parameters

Period: 101.395 minutes

Inclination: 71.2415 deg

SMA: 7202.863 km

Apoapsis: 894.197 km

Periapsis: 755.26 km

RAAN: 213.1236 deg

Eccentricy: 0.0096446

Argument of periapsis: 7.5283 deg

Mean anomaly: 352.7264 deg

Mean motion: 14.20185222 rev/day

Mean motion (dot): 0.00001541 rev/day2

B* drag term: 0.00070932 1/REarth

Two-line elements (TLE)

Creation date: July 4, 2025, 6:39 p.m.

Reference frame: TEME

Reference center: EARTH

Epoch: July 4, 2025, 3:41 a.m. UTC

TLE line 0: 0 SL-16 DEB

TLE line 1: 1 22549U 92093HK 25185.15399427 .00001541 00000-0 70932-3 0 9991

TLE line 2: 2 22549 71.2415 213.1236 0096446 7.5283 352.7264 14.20185222662398

Live tracking on map

Real-time ground track for satellite SL-16 DEB.

In-orbit conjunctions

A list of the most updated potential collisions computed for object SL-16 DEB.

Target Orbit TCA Probability of collision Miss distance Type
FENGYUN 1C DEB SSO 2025-05-28 13:08:44 0.0001711607 142.0 (m) DEBRIS
CZ-6A DEB LEO 2025-02-12 17:08:47 0.0005477213 163.0 (m) DEBRIS
FENGYUN 1C DEB SSO 2024-11-16 22:22:52 0.0001677029 922.0 (m) DEBRIS
SL-16 DEB SSO 2024-11-12 20:06:19 0.0001242612 950.0 (m) DEBRIS

Associated space launch

Second generation ELING satellite

SL-16 DEB was lifted into orbit during the mission ‘Zenit-2 | Tselina-2 12’, on board a Zenit-2 space rocket.

The launch took place on Dec. 25, 1992, 5:56 a.m. from 45/1.

For more information about the launch, click the button.

Launch to space Zenit-2 | Tselina-2 12
Zenit-2 | Tselina-2 12

Agency: N/A

Status: Launch Successful

Launch date: Dec. 25, 1992, 5:56 a.m. UTC

Rocket: Zenit-2

Launch pad: 45/1

Location: Baikonur Cosmodrome, Republic of Kazakhstan

...

Latest news about this satellite

There are no fresh news available about this satellite. Check back as we update our databases every day.


Newsletter sign-up

Weekly statistics, charts and insights to help you stay on top of the space industry.